Volver al catálogo

STARLINK-5577

ActivoComunicacionesVLEO
NORAD 55751·PAYLOAD·🇺🇸 United States

Lanzado Mar 3, 2023 desde Vandenberg Space Force Base

Loading…

Próximos Pases (próximas 24 horas)

TLE

ActualizadoSource: CelesTrak SupGP

Época: Sep 15, 2026, 01:43 UTC

1 55751C 23028L   26258.07201389  .00041355  00000+0  34653-2 0  2589
2 55751  70.0000 127.0493 0002735 274.0819 154.7534 14.98314822    18

Sigue STARLINK-5577 en tiempo real con AllMySat

Download on the App Store